EST,Max TemperatureF,Mean TemperatureF,Min TemperatureF,Max Dew PointF,MeanDew PointF,Min DewpointF,Max Humidity, Mean Humidity, Min Humidity, Max Sea Level PressureIn, Mean Sea Level PressureIn, Min Sea Level PressureIn, Max VisibilityMiles, Mean VisibilityMiles, Min VisibilityMiles, Max Wind SpeedMPH, Mean Wind SpeedMPH, Max Gust SpeedMPH,PrecipitationIn, CloudCover, Events, WindDirDegrees
2012-11-1,51,45,39,37,34,32,87,59,49,29.76,29.70,29.66,10,10,10,12,2,18,0.00,6,,279
2012-11-2,54,46,38,38,31,27,86,56,38,29.93,29.80,29.75,10,10,10,14,4,24,0.00,5,,290
2012-11-3,49,46,43,32,29,27,61,50,44,30.08,30.01,29.93,10,10,10,15,9,25,0.00,7,,294
2012-11-4,52,42,33,32,28,24,90,59,34,30.10,30.06,30.01,10,10,10,10,3,,0.00,2,,332
2012-11-5,50,41,31,32,26,22,87,54,34,30.20,30.10,30.04,10,10,7,13,5,18,0.00,4,,334
2012-11-6,48,38,29,30,26,21,93,62,36,30.23,30.15,30.03,10,10,10,9,2,,0.00,2,,49
2012-11-7,45,42,40,32,28,26,73,57,49,29.92,29.91,29.89,10,10,7,10,7,16,0.00,8,,347
2012-11-8,55,48,40,30,16,4,66,32,13,30.05,29.95,29.89,10,10,10,16,7,24,0.00,2,,317
2012-11-9,57,48,38,36,31,27,91,59,34,30.24,30.17,30.06,10,10,7,13,4,20,0.00,0,,315
2012-11-10,66,50,33,41,36,32,95,70,29,30.38,30.32,30.24,10,8,4,5,0,,0.00,0,,106
2012-11-11,73,55,37,45,40,31,95,69,20,30.47,30.41,30.37,10,9,4,8,1,,0.00,0,,164
2012-11-12,73,58,42,58,50,40,95,74,46,30.43,30.30,30.15,10,8,2,12,2,16,0.00,2,,168
2012-11-13,53,52,36,59,35,26,91,67,41,30.49,30.37,30.15,10,8,3,13,7,23,0.00,4,,330
2012-11-14,49,40,31,32,27,23,95,67,37,30.57,30.50,30.45,10,10,7,10,2,17,0.00,0,,7
2012-11-15,49,40,32,35,32,29,92,65,50,30.44,30.37,30.32,10,10,10,6,1,,0.00,6,,34
2012-11-16,54,44,34,34,30,23,90,63,30,30.45,30.36,30.31,10,10,10,9,1,,0.00,1,,1
2012-11-17,55,42,30,32,27,14,94,64,20,30.61,30.56,30.45,10,10,7,10,1,,0.00,0,,40
2012-11-18,53,44,34,37,35,31,92,70,52,30.62,30.58,30.52,10,10,7,14,3,17,0.00,2,,43
2012-11-19,56,48,40,38,37,33,85,62,50,30.51,30.37,30.23,10,10,10,9,4,,0.00,7,,5
2012-11-20,55,48,40,41,39,35,93,72,56,30.22,30.16,30.10,10,9,4,6,1,,0.00,4,,22
2012-11-21,58,46,33,38,31,21,96,70,24,30.23,30.19,30.14,10,7,1,7,1,,0.00,0,,27
2012-11-22,59,44,29,34,28,21,93,66,23,30.28,30.22,30.16,10,9,5,6,1,,0.00,0,,12
2012-11-23,63,46,30,38,30,25,93,60,24,30.15,29.94,29.78,10,10,7,16,2,26,0.00,1,,239
2012-11-24,46,43,37,24,17,14,45,39,33,30.05,29.96,29.83,10,10,10,20,12,37,0.00,6,,302
2012-11-25,44,36,27,24,18,14,82,50,30,30.09,30.02,29.96,10,10,10,10,5,18,0.00,2,,256
2012-11-26,56,41,26,36,27,22,93,65,27,30.23,30.14,30.01,10,10,10,8,1,,0.00,0,,307
2012-11-27,44,39,34,44,39,35,100,92,76,30.28,30.21,30.17,10,7,2,10,2,18,0.00,7,,350
2012-11-28,49,40,31,37,28,22,100,62,36,30.38,30.30,30.25,10,10,4,14,4,21,0.00,3,,320
2012-11-29,52,38,26,32,27,23,99,73,32,30.46,30.39,30.35,10,10,10,10,1,16,0.00,0,,243
2012-11-30,54,40,27,37,31,27,100,77,38,30.38,30.35,30.31,10,10,7,6,0,,0.00,1,,59